Погода Каменск-Шахтинский

Погода Каменск-Шахтинский : погода сейчас, прогноз погоды и архив. Всё, что Вы хотите узнать о погоде Каменск-Шахтинский!

Хотите узнать прогноз погоды Каменск-Шахтинский? Тогда Вам сюда: Погода Каменск-Шахтинский

Поиск расширенной информации на нашем сайте:

Полезная информация: Прочистка канализации в загородном доме "Servis 24".

Другие новости

Новости СМИ2

Главная страница сайта

Новости сайта

03.07.2017

Напоминаем, что на нашем специализированном сайте Метеоцентр.Азия вы можете получить высокодетализированные автоматические прогнозы погоды по пунктам России, СНГ и мира в авиационном формате (включающие направление и скорость ветра, видимость, явления погоды, количество и форму облачности, нижнюю и верхнюю границу облачности).

Рекомендуем: Дешевая недвижимость в Теплице свой уголок в Европе

Погода Каменск-Шахтинский - сегодня

Время (UTC), дата Ветер
(°,м/с) 
Видим.   Явления Облачность Т
(°С)
Тd
(°С)
f(%) Тe
(°С)
Pmin
(гПа)
dP
(гПа)
Po
(мм)
O2
(г/м3)
Тmin Tmax R s Состояние
почвы
06 15.08.17 080 (В) 20000 м    6/0 верхняя 
[Ci fib]
+26.2 +8.2 32 +26  1016.5  0.7  757  277           
09 15.08.17 070 (В) 5{11}  20000 м    4/0 верхняя 
[Ci fib]
+31.1 +5.4 20 +31  1016  -0.4  757  273           
12 15.08.17 090 (В) 3{10}  20000 м    6/0 верхняя 
[Ci fib]
+32.2 +4.6 18 +32  1015.2  -0.8  757  272           
15 15.08.17 070 (В) 4{10}  20000 м    6/0 верхняя 
[Ci fib]
+31.3 +2.5 16 +31  1015.3  -0.1  757  273    +32.6       
18 15.08.17 060 (СВ) 20000 м    3/0 верхняя 
[Ci fib]
+26 +5.1 26 +26  1016.7  1.2  758  278           
21 15.08.17 080 (В) 20000 м    ясно 
+23.2 +5.8 32 +23  1016.8  0.1  758  280           
00 16.08.17 160 (Ю) 20000 м    4/0 средняя 
[Ac trans]
+20.3 +5.6 38 +20  1017  0.1  758  283           
03 16.08.17 320 (СЗ) 20000 м    8/0 верхняя 
[Ci fib]
+18 +7.2 49 +19  1017.4  0.3  758  285  +17        сухая 
06 16.08.17 090 (В) 20000 м    6/0 верхняя 
[Ci fib]
+25.5 +7.3 31 +26  1017.6  0.4  758  278           
09 16.08.17 110 (В) 20000 м    5/0 верхняя 
[Ci fib]
+32.6 +5.6 18 +33  1016.8  -0.7  758  272           
12 16.08.17 070 (В) 5{10}  20000 м    8/4 1000 м верхняя 
[Cu hum|Ci fib]
+33.3 +3.3 15 +33  1016.2  -0.5  757  272           
15 16.08.17 080 (В) 5{10}  20000 м    8/3 1000 м средняя, верхняя 
[Cu hum|Ac trans|Ci fib]
+31.4 +4.5 18 +31  1016.1  -0.2  757  273    +34.5       
18 16.08.17 120 (ЮВ) 2{10}  20000 м    ясно 
+25.4 +3.8 25 +25  1017  0.8  758  279           
21 16.08.17 150 (ЮВ) 20000 м    ясно 
+22.1 +3.8 30 +22  1017.6  0.5  758  282           
00 17.08.17 150 (ЮВ) 20000 м    ясно 
+20.9 +5.6 37 +21  1017.4  -0.2  758  283           
03 17.08.17 040 (СВ) 20000 м    3/0 средняя 
[Ac trans]
+19.3 +8.5 50 +21  1017.8  0.4  758  284  +19.3        сухая 
06 17.08.17 080 (В) 20000 м    ясно 
+26.1 +8.3 32 +26  1018  0.3  758  278  +18.9         
09 17.08.17 070 (В) 5-10{10}  20000 м    3/3 600 м 
[Cu hum]
+31.2 +4.7 19 +31  1017.2  -0.7  758  273           
12 17.08.17 070 (В) 5{11}  20000 м    ясно 
+33.2 +1.7 14 +33  1015.8  -1.4  757  272           
15 17.08.17 090 (В) 6-10{13}  20000 м    ясно 
+32.6 +1.2 14 +33  1015.1  -0.7  756  272    +33.8       
18 17.08.17 050 (СВ) 4{10}  20000 м    ясно 
+28.5 +1.7 18 +29  1015.8  0.7  757  276           
21 17.08.17 110 (В) 20000 м    3/0 средняя 
[Ac cast]
+24.9 +3.9 26 +25  1016.2  0.3  757  279           
00 18.08.17 120 (ЮВ) 20000 м    5/0 средняя 
[Ac cast]
+22.7 +6.2 34 +23  1017.5  1.2  758  281           
03 18.08.17 090 (В) 20000 м    ясно 
+20.3 +5.5 38 +20  1018.5  759  284  +20.1        сухая 
06 18.08.17 110 (В) 20000 м    ясно 
+27.5 +3.8 22 +28  1019.6  1.2  760  278           
Время (UTC), дата Ветер
(°,м/с) 
Видим.   Явления Облачность Т
(°С)
Тd
(°С)
f(%) Тe
(°С)
Pmin
(гПа)
dP
(гПа)
Po
(мм)
O2
(г/м3)
Тmin Tmax R s Состояние
почвы

Для получения пояснительной информации подведите курсор к названию столбца.

ПОГОДА Каменск-Шахтинский - архив

Всё, что Вы хотите узнать о погоде Каменск-Шахтинский - удобно и подробно!

Выберите нужную дату (начиная с 1 января 2015* года) и нажмите кнопку "Найти".
Будут отображены архивные сводки погоды по пункту Каменск-Шахтинский, начиная с указанной даты.


Отображать данные в формате CSV (для использования в таблицах Excel)


Внимание! Наш архив погоды предназначен исключительно для личного некоммерческого использования в познавательных целях. Если Вам необходимы официальные справки о состоянии погоды (для производственных, юридических, коммерческих и т.п. целей), обращайтесь в органы Росгидромета.

*Примечание: данная дата относится к архиву по метеостанциям СССР (Россия, СНГ, Балтия).
Архив по метеостанциям Зарубежной Европы и Азии (кроме Китая) хранится 10 дней, по другим регионам земного шара (Китай, Африка, Америка, Австралия, Океания) - 1 день.

Каменск-Шахтинский - район местоположения метеостанции


Название, широта, долгота, высота метеостанции:
Каменск-Шахтинский 48.3°ш. 40.3°д. 51 м над ур. моря [Российская Федерация]

Дополнительная информация

В oтличие oт бoльшинства пoгoдных сайтoв мы публикуем пoдрoбную метеoинфoрмацию в детальнoм прoфессиoнальнoм фoрмате.

Характеристики температуры и влажнoсти вoздуха измеряются на высoте 2 м в тени вдали oт зданий и деревьев.
Скoрoсть ветра измеряется на высoте 10 м (на урoвне рoста челoвека скoрoсть ветра ниже в 1.5-2 раза). Если метеoстанция нахoдится в гoрoде или в лесу, тo скoрoсть ветра занижена на 2-4 м/с пo сравнению с oткрытым местoм. Скoрoсть ветра над акватoриями крупных рек и oзёр, а также на вершинах хoлмoв на 2-5 м/с выше, чем в oбычных услoвиях.
Атмoсфернoе давление в разных тoчках местнoсти мoжет значительнo oтличаться oт давления на метеoстанции, в зависимoсти oт услoвий рельефа (при пoдъёме на 10 м давление пoнижается примернo на 1 мм рт.ст.).